North Island, CA

9:32 AM PDT on May 26, 2018 (GMT -0700)
North Island Naval Air Station

Weather History for KNZY - May, 2013

Change the Weather History Date:

Saturday, May 11, 2013

  Actual Average Record
Temperature  
Mean Temperature 68 °F -  
Max Temperature 73 °F 65 °F 77 °F (2014)
Min Temperature 63 °F 55 °F 52 °F (2005)
Cooling Degree Days 3    
Growing Degree Days 18 (Base 50)    
Moisture  
Dew Point 58 °F    
Average Humidity 76    
Maximum Humidity 84    
Minimum Humidity 61    
Precipitation  
Precipitation 0.00 in - - ()
Sea Level Pressure  
Sea Level Pressure 30.04 in    
Wind  
Wind Speed 4 mph (NW)    
Max Wind Speed 13 mph    
Max Gust Speed -    
Visibility 8 miles    
Events      
Averages and records for this station are not official NWS values.
T = Trace of Precipitation, MM = Missing Value Source: NWS Daily Summary

Daily Weather History Graph

Daily Weather History Graph

Search for Another Location

Airport or City:

Astronomy

May. 11, 2013 Rise Set
Actual Time 5:52 AM PDT 7:38 PM PDT
Civil Twilight 5:25 AM PDT 8:05 PM PDT
Nautical Twilight 4:53 AM PDT 8:37 PM PDT
Astronomical Twilight 4:19 AM PDT 9:11 PM PDT
Moon 7:05 AM PDT (5/11) 9:20 PM PDT (5/11)
Length of Visible Light 14h 39m
Length of Day
13h 45m
Waxing Crescent, 3% of the Moon is Illuminated
May 11
Waxing Crescent
May 17
First Quarter
May 24
Full
May 31
Last Quarter
Jun 8
New

Hourly Weather History & Observations

Time (PDT) Temp. Dew Point Humidity Pressure Visibility Wind Dir Wind Speed Gust Speed Precip Events Conditions
12:52 AM 63.0 °F 57.9 °F 84% 30.08 in 8.0 mi Calm Calm - N/A   Mostly Cloudy
1:52 AM 64.0 °F 57.9 °F 80% 30.06 in 8.0 mi Calm Calm - N/A   Mostly Cloudy
2:52 AM 63.0 °F 57.9 °F 84% 30.06 in 8.0 mi Calm Calm - N/A   Overcast
3:52 AM 64.0 °F 57.9 °F 80% 30.04 in 8.0 mi WSW 3.5 mph - N/A   Overcast
4:52 AM 63.0 °F 57.9 °F 84% 30.04 in 8.0 mi Calm Calm - N/A   Overcast
5:52 AM 63.0 °F 57.9 °F 84% 30.04 in 7.0 mi Calm Calm - N/A   Overcast
6:52 AM 63.0 °F 57.9 °F 84% 30.06 in 6.0 mi Calm Calm - N/A   Haze
7:52 AM 63.0 °F 57.9 °F 84% 30.06 in 7.0 mi NW 3.5 mph - N/A   Overcast
8:52 AM 64.9 °F 57.9 °F 78% 30.06 in 6.0 mi NNE 3.5 mph - N/A   Haze
9:17 AM 68.0 °F 57.2 °F 68% 30.06 in 7.0 mi North 3.5 mph - N/A   Mostly Cloudy
9:52 AM 69.1 °F 57.9 °F 68% 30.05 in 7.0 mi NNW 5.8 mph - N/A   Scattered Clouds
10:52 AM 71.1 °F 59.0 °F 66% 30.04 in 7.0 mi NW 9.2 mph - N/A   Scattered Clouds
11:52 AM 72.0 °F 59.0 °F 64% 30.03 in 8.0 mi WNW 10.4 mph - N/A   Scattered Clouds
12:52 PM 73.0 °F 59.0 °F 61% 30.03 in 9.0 mi WNW 12.7 mph - N/A   Scattered Clouds
1:52 PM 72.0 °F 59.0 °F 64% 30.02 in 9.0 mi WNW 9.2 mph - N/A   Scattered Clouds
2:52 PM 72.0 °F 57.9 °F 61% 30.00 in 10.0 mi West 10.4 mph - N/A   Scattered Clouds
3:52 PM 71.1 °F 59.0 °F 66% 29.99 in 8.0 mi West 6.9 mph - N/A   Scattered Clouds
4:52 PM 70.0 °F 57.9 °F 65% 30.00 in 8.0 mi WNW 9.2 mph - N/A   Scattered Clouds
5:52 PM 68.0 °F 57.9 °F 70% 30.00 in 7.0 mi West 6.9 mph - N/A   Scattered Clouds
6:52 PM 66.9 °F 57.9 °F 73% 30.01 in 5.0 mi West 6.9 mph - N/A   Haze
7:52 PM 64.9 °F 59.0 °F 81% 30.03 in 7.0 mi NW 5.8 mph - N/A   Scattered Clouds
8:52 PM 64.9 °F 59.0 °F 81% 30.04 in 9.0 mi WNW 5.8 mph - N/A   Scattered Clouds
9:52 PM 64.0 °F 59.0 °F 84% 30.05 in 8.0 mi NW 6.9 mph - N/A   Scattered Clouds
10:09 PM 64.4 °F 59.0 °F 83% 30.05 in 7.0 mi NNW 6.9 mph - N/A   Mostly Cloudy
10:52 PM 64.0 °F 59.0 °F 84% 30.05 in 7.0 mi NW 3.5 mph - N/A   Scattered Clouds
11:52 PM 63.0 °F 57.9 °F 84% 30.04 in 7.0 mi WNW 3.5 mph - N/A   Partly Cloudy